Wind_Speed
8 9 11 11 11 11 10 9 9 10 10 10 9 9 9 8 6 4 4 5 6 7 7 8 8 9 10 12 13 14 14 15 15 15 14 13 12 11 10 9 8 7 6 4 2 1 1 4 6
7 8 9 11 12 11 9 9 9 10 10 9 10 9 9 8 6 4 4 4 5 6 6 6 6 7 8 10 11 11 12 13 13 13 13 13 12 11 10 9 8 7 7 5 4 3 1 2 4
5 7 8 11 11 9 8 8 9 9 9 9 9 9 9 8 6 4 3 3 4 4 4 4 4 5 6 7 8 9 10 11 11 12 12 12 12 11 10 10 9 9 8 7 6 4 3 1 3
4 4 6 9 9 8 7 7 7 8 8 9 9 9 8 8 6 4 2 2 3 3 3 2 3 3 4 5 6 6 7 8 9 9 10 10 10 10 10 9 9 9 8 8 7 6 4 3 3
3 3 5 7 7 6 6 6 6 7 8 8 8 8 8 7 6 4 2 1 2 3 2 2 2 1 2 2 3 4 5 6 6 7 7 8 8 8 8 8 9 8 8 8 8 7 6 4 3
4 4 4 5 5 5 4 5 5 6 6 7 7 7 7 7 6 4 2 1 2 3 3 3 3 2 1 0 1 2 3 4 5 5 6 6 7 7 7 7 7 8 8 8 8 7 7 6 5
5 5 4 4 5 5 4 3 3 3 4 5 6 7 6 5 5 4 3 2 2 4 4 4 4 4 3 3 2 2 3 4 4 5 6 6 7 7 7 6 6 6 7 7 7 7 6 6 5
7 6 6 6 5 6 4 3 2 1 2 4 5 6 6 5 5 5 4 4 4 4 5 6 6 6 6 5 5 5 5 5 6 6 6 7 7 7 7 7 7 6 6 6 6 6 6 6 5
7 7 8 8 8 7 7 6 5 4 4 5 6 7 7 7 7 7 7 6 6 7 7 7 7 8 8 8 8 8 8 7 8 8 8 8 8 9 9 9 8 8 7 7 6 5 5 5 5
8 8 9 11 11 11 11 10 8 8 9 9 9 9 9 9 10 10 10 10 10 10 10 9 9 10 10 11 11 11 10 10 10 10 10 10 10 10 10 10 10 9 9 8 7 6 6 6 6
10 10 11 13 14 14 15 14 13 13 12 12 12 11 12 12 13 13 13 14 13 13 13 13 12 13 13 13 13 13 13 13 12 12 12 12 12 12 12 12 12 11 10 10 9 8 7 7 6
11 12 13 15 16 17 17 18 18 17 17 16 16 15 15 16 16 17 17 17 17 17 17 16 16 16 17 17 17 16 16 15 15 15 15 14 14 14 14 14 13 13 12 12 11 10 9 8 7
13 14 16 17 19 20 20 21 21 21 20 19 19 19 18 19 19 20 20 21 21 21 21 21 21 21 21 21 21 20 19 19 18 18 17 16 16 16 16 16 15 15 15 14 13 12 11 10 9
15 16 18 19 21 22 23 23 24 23 23 23 23 22 22 22 22 23 23 23 24 24 25 24 24 25 25 25 25 24 23 22 21 21 20 19 18 17 17 17 17 16 16 16 15 14 13 12 11
18 19 21 22 24 25 26 26 26 26 26 26 26 25 26 26 27 27 27 27 27 28 28 28 28 27 27 27 27 27 27 26 24 24 23 22 20 19 18 18 17 17 17 17 16 15 15 14 13
21 23 24 25 26 27 28 29 29 29 29 29 29 30 30 30 30 30 31 31 31 31 32 32 31 31 31 31 31 30 30 29 28 26 25 24 23 22 21 20 19 18 18 19 18 18 17 17 16
23 25 26 27 28 29 30 30 30 30 31 31 32 32 32 33 33 34 34 35 35 35 35 35 34 34 34 33 33 33 32 32 30 28 28 27 27 26 24 22 21 21 21 21 20 19 19 19 18
25 26 27 28 28 29 30 31 30 30 31 32 33 34 35 35 36 37 38 38 39 39 39 39 39 38 38 37 35 35 34 33 32 30 29 28 27 26 25 23 23 23 22 21 21 21 21 21 20
26 26 27 28 28 29 29 30 30 30 31 33 34 35 37 38 39 40 41 42 42 42 43 43 42 42 42 41 40 37 36 35 34 33 32 30 27 26 26 25 24 23 23 23 23 23 23 23 22
25 26 26 27 28 28 28 29 30 31 32 33 35 36 38 39 41 42 43 44 44 45 45 45 45 44 44 44 43 41 40 38 35 33 33 31 30 28 26 27 26 25 25 25 25 25 24 24 23
24 25 25 27 28 28 29 30 31 32 33 34 36 37 38 39 39 40 43 44 45 46 46 46 46 45 45 44 44 43 41 41 38 35 34 34 33 31 31 29 27 26 26 26 26 27 27 26 25
23 23 24 26 27 28 28 29 29 31 32 34 35 35 36 38 39 39 40 41 42 43 44 44 44 44 44 44 43 43 42 41 39 38 36 36 35 33 32 31 29 28 27 27 28 27 27 27 26
21 22 23 24 25 26 26 27 28 28 29 31 32 33 35 36 36 37 38 38 38 39 39 39 40 41 42 41 41 41 41 41 39 38 38 37 36 35 33 31 30 30 29 30 30 29 28 28 27
19 21 22 22 22 23 23 25 25 26 26 27 28 30 31 32 33 34 33 32 32 33 34 34 35 36 37 37 37 37 37 38 37 37 37 36 37 36 34 32 30 30 31 30 30 30 29 29 29
18 20 21 20 20 21 21 22 22 23 23 23 23 24 26 27 27 27 27 26 26 26 28 28 27 27 28 30 31 32 32 33 34 34 35 35 35 35 35 34 31 30 30 31 30 29 29 29 29
18 19 19 19 19 19 19 19 20 21 21 21 21 21 21 21 21 21 20 21 20 20 19 19 19 20 20 21 22 24 25 25 27 29 31 31 31 32 31 31 30 29 29 28 29 30 30 30 30
18 18 18 17 16 16 16 17 18 18 19 19 19 19 18 17 17 17 16 15 13 12 11 11 12 13 16 17 17 18 19 19 20 23 25 25 27 27 27 27 27 27 28 28 29 29 29 29 30
17 16 16 14 14 14 14 14 15 15 16 16 16 16 17 17 17 15 13 12 11 9 8 7 7 7 9 10 11 13 15 15 16 18 20 22 23 24 25 26 26 27 27 28 30 30 30 30 29
16 15 14 14 13 13 13 14 14 15 15 15 15 16 16 15 16 15 14 12 11 10 8 6 5 5 4 5 6 8 10 12 13 14 16 18 19 20 21 21 23 25 25 26 26 26 26 27 27
15 14 14 13 13 12 13 13 14 15 15 16 17 17 17 17 17 17 16 15 14 12 10 8 7 6 4 2 2 4 5 7 8 10 12 13 15 16 17 18 20 21 21 22 23 23 24 25 25
Wind_Direction
54 51 45 43 43 40 37 38 39 41 41 41 45 50 52 56 66 84 98 110 107 99 94 91 85 79 75 71 68 66 65 63 62 62 63 64 64 64 63 59 57 55 52 49 49 19 247 235 243
52 49 45 43 39 36 39 43 43 42 38 34 37 41 44 49 56 73 97 114 118 110 100 95 90 82 76 70 65 62 60 58 57 56 56 56 57 58 57 54 51 49 47 44 40 32 11 263 255
44 46 44 42 39 35 39 43 44 43 37 34 32 33 38 41 44 60 93 122 129 124 115 105 96 87 78 71 64 59 55 52 51 50 50 49 49 49 49 47 44 41 39 38 35 31 18 328 277
24 37 39 38 36 36 38 41 43 44 36 32 29 30 34 35 35 42 71 129 141 141 142 130 115 97 82 70 61 55 50 45 43 42 41 40 40 40 39 39 38 34 32 31 28 25 15 352 311
337 4 27 41 41 36 33 37 41 41 33 26 21 23 28 31 28 25 34 126 162 170 180 182 172 145 95 65 51 45 39 33 29 28 27 25 24 26 26 26 27 27 25 22 20 18 13 1 336
307 330 4 32 29 25 26 31 35 40 32 18 10 13 19 23 19 12 359 332 204 205 209 213 212 213 220 278 3 9 10 7 6 4 4 4 3 4 7 9 10 14 15 15 14 13 10 3 349
296 310 334 351 350 358 15 17 29 30 18 1 352 351 360 8 8 355 333 304 257 240 239 238 236 236 241 252 268 293 310 320 328 333 336 339 341 341 343 345 347 352 358 1 4 6 5 2 353
291 300 313 316 318 328 335 333 317 327 327 318 323 323 328 337 339 329 312 292 269 256 253 251 250 251 254 257 263 272 280 289 297 303 309 314 318 321 323 323 324 326 332 337 343 350 353 352 347
283 288 293 296 298 300 301 303 292 276 281 284 286 293 301 307 308 307 298 286 275 266 260 258 257 257 259 261 263 267 271 276 282 288 292 295 299 302 306 309 310 311 313 316 321 329 336 336 338
269 277 278 281 282 284 286 289 285 276 276 278 278 280 284 289 291 293 290 283 275 268 265 264 264 263 263 264 265 267 269 271 274 280 284 287 289 292 295 297 299 301 302 304 306 310 316 318 321
261 266 268 270 273 276 280 285 285 282 279 281 281 281 280 279 280 281 282 280 277 272 269 267 267 266 266 266 266 265 266 268 271 274 278 281 284 286 287 289 291 293 293 292 293 295 299 302 308
259 262 265 268 272 277 281 283 284 283 281 281 281 279 277 275 275 276 277 276 275 274 271 269 266 266 265 264 263 262 263 263 266 269 272 275 278 281 283 283 283 285 286 285 283 284 287 291 292
266 268 270 272 275 277 278 279 280 281 281 279 278 277 275 273 273 272 272 271 271 271 270 270 268 266 265 264 263 261 259 260 262 263 266 269 273 277 279 280 278 279 279 279 279 277 278 281 281
275 276 276 277 277 277 278 278 279 279 279 278 276 275 272 271 270 269 268 268 268 268 268 268 267 266 265 263 261 260 258 258 259 260 260 263 267 271 274 276 276 275 275 275 276 274 273 274 274
278 279 278 278 278 277 278 277 277 278 277 276 275 273 271 271 270 269 267 267 266 266 266 266 265 263 263 262 259 259 256 254 255 257 258 259 263 264 267 271 272 272 272 273 273 272 271 269 268
279 279 279 279 279 278 278 277 277 276 275 275 274 274 273 272 271 270 268 267 266 265 264 264 264 263 262 260 259 256 256 255 254 256 258 261 263 261 262 265 267 269 270 272 272 271 269 267 265
279 280 280 280 280 279 279 278 278 279 277 277 276 275 275 274 272 271 269 268 267 264 263 261 262 261 259 258 258 257 256 253 253 255 257 259 260 260 260 261 264 266 268 271 270 267 267 265 264
282 283 283 283 282 281 281 281 281 281 281 280 279 278 277 276 275 273 272 271 268 266 264 261 260 258 258 257 256 255 254 254 255 255 257 258 259 258 259 261 263 264 266 267 267 265 264 263 261
285 285 285 284 284 282 282 282 283 284 284 283 282 280 279 278 277 275 274 273 270 268 267 264 262 259 257 257 257 255 254 254 255 254 255 256 258 258 257 258 258 261 264 264 265 264 263 261 259
287 287 287 286 285 284 284 283 284 285 285 284 283 282 281 280 279 277 276 273 272 270 269 267 264 262 259 257 256 255 253 254 255 255 254 255 257 257 259 259 258 261 263 264 262 260 261 261 260
290 291 290 290 289 287 286 286 287 286 285 285 284 283 282 281 280 279 279 277 274 272 270 268 266 264 262 259 257 255 255 254 255 257 255 255 256 257 261 261 259 261 262 263 263 258 257 258 260
296 296 294 292 290 289 290 290 290 289 288 288 287 287 286 285 284 283 281 278 276 273 271 269 267 266 264 261 258 256 254 253 254 255 255 256 257 259 261 261 260 261 263 263 261 258 256 256 258
300 299 299 298 295 293 293 293 294 293 293 291 291 290 289 289 288 287 286 283 279 275 273 270 266 264 263 260 258 256 253 252 253 254 256 258 259 260 261 262 264 262 261 262 262 259 256 256 256
305 304 303 302 300 297 297 297 298 299 297 294 294 294 293 293 293 293 291 289 286 280 276 273 268 265 263 260 257 255 253 252 252 253 253 254 255 257 259 263 264 264 261 259 260 259 259 257 256
317 315 313 309 305 304 303 302 306 307 307 305 304 303 302 303 303 299 297 296 293 286 281 275 270 266 263 259 256 254 253 252 252 251 251 253 256 257 258 261 262 263 262 262 262 260 263 259 256
322 320 319 317 314 312 311 311 315 317 320 320 320 319 318 318 316 312 309 304 304 297 287 278 269 265 260 256 253 252 251 251 250 250 252 254 257 258 259 259 260 259 262 263 265 264 262 259 257
329 329 328 325 321 320 322 322 325 329 333 335 334 333 335 335 334 331 328 325 323 318 305 286 274 268 263 258 253 249 249 250 250 250 252 254 258 258 258 259 258 261 261 262 262 263 260 260 257
338 339 339 337 338 338 338 341 344 344 347 349 352 353 353 352 355 356 358 358 350 345 340 322 296 286 274 262 255 250 250 251 253 252 253 254 259 259 259 258 258 261 263 263 261 261 261 258 257
349 349 350 351 351 353 356 360 2 4 4 2 2 5 6 9 12 16 16 13 10 5 2 357 358 340 315 283 261 252 250 251 254 255 256 257 258 258 258 257 258 261 263 263 263 262 263 260 258
1 1 2 5 8 8 8 9 12 14 15 15 17 19 21 22 25 28 29 29 26 21 26 29 32 30 21 350 296 262 258 259 258 259 257 258 260 262 260 259 260 262 263 264 264 263 264 261 261
Height
5915 5915 5915 5916 5916 5915 5914 5913 5912 5911 5911 5910 5910 5910 5910 5910 5911 5913 5911 5910 5911 5911 5912 5912 5912 5912 5911 5911 5910 5910 5909 5908 5908 5908 5907 5907 5907 5907 5907 5907 5907 5907 5907 5907 5907 5907 5908 5908 5909
5916 5916 5917 5917 5916 5916 5916 5914 5913 5913 5912 5911 5911 5911 5911 5910 5910 5910 5910 5911 5911 5912 5912 5913 5913 5913 5913 5912 5912 5911 5911 5910 5910 5909 5909 5909 5909 5909 5908 5908 5908 5908 5908 5908 5908 5908 5908 5908 5909
5916 5917 5918 5917 5917 5917 5917 5916 5915 5914 5913 5913 5912 5912 5912 5911 5911 5911 5911 5911 5912 5912 5913 5913 5913 5913 5913 5913 5913 5912 5912 5912 5911 5911 5911 5910 5910 5910 5910 5909 5909 5909 5908 5908 5908 5908 5908 5908 5908
5917 5918 5919 5918 5918 5918 5917 5917 5916 5915 5915 5914 5913 5913 5913 5912 5912 5911 5911 5912 5912 5913 5913 5914 5914 5914 5914 5914 5913 5913 5913 5913 5912 5912 5912 5912 5911 5911 5911 5910 5910 5909 5909 5909 5908 5908 5908 5908 5908
5917 5918 5919 5918 5918 5918 5918 5917 5917 5916 5915 5915 5914 5914 5913 5913 5912 5912 5912 5912 5912 5913 5913 5914 5914 5914 5914 5914 5914 5914 5913 5913 5913 5913 5913 5912 5912 5912 5911 5911 5911 5910 5910 5909 5909 5908 5908 5908 5907
5918 5918 5919 5918 5919 5919 5918 5918 5917 5916 5916 5915 5915 5914 5914 5913 5913 5913 5912 5912 5912 5913 5913 5913 5913 5913 5913 5913 5914 5914 5913 5913 5913 5913 5913 5913 5912 5912 5912 5911 5911 5911 5910 5909 5909 5908 5908 5907 5907
5919 5918 5918 5918 5918 5918 5919 5918 5917 5916 5916 5915 5915 5914 5913 5913 5913 5913 5912 5912 5912 5913 5913 5913 5913 5913 5913 5913 5913 5913 5913 5913 5913 5913 5913 5912 5912 5912 5912 5911 5911 5910 5910 5910 5909 5908 5908 5907 5907
5917 5918 5917 5917 5917 5918 5918 5917 5916 5916 5916 5915 5915 5914 5913 5913 5913 5913 5912 5912 5912 5912 5912 5912 5912 5912 5912 5912 5912 5912 5912 5912 5912 5912 5912 5912 5911 5911 5911 5910 5910 5910 5910 5909 5909 5908 5907 5907 5906
5917 5918 5916 5916 5916 5916 5916 5916 5916 5915 5915 5915 5914 5913 5913 5912 5912 5912 5912 5911 5911 5911 5910 5910 5910 5910 5910 5910 5910 5910 5910 5910 5910 5910 5910 5910 5910 5910 5909 5909 5909 5908 5908 5908 5908 5907 5907 5906 5906
5916 5916 5915 5915 5915 5914 5914 5914 5914 5914 5914 5913 5913 5912 5911 5911 5910 5910 5910 5910 5909 5909 5908 5908 5908 5908 5908 5908 5908 5908 5908 5908 5908 5908 5908 5908 5907 5907 5907 5907 5907 5907 5906 5906 5906 5906 5906 5905 5905
5914 5914 5913 5913 5912 5912 5912 5912 5912 5912 5912 5911 5911 5911 5910 5909 5909 5908 5908 5907 5907 5906 5906 5905 5905 5905 5905 5905 5905 5905 5905 5905 5905 5905 5905 5905 5905 5904 5905 5905 5904 5904 5904 5904 5904 5904 5904 5904 5904
5912 5912 5911 5911 5911 5911 5910 5909 5909 5909 5909 5909 5909 5908 5908 5907 5907 5906 5905 5904 5903 5903 5902 5902 5901 5901 5901 5901 5901 5901 5901 5901 5901 5901 5901 5901 5901 5901 5901 5901 5901 5901 5901 5901 5901 5902 5902 5902 5902
5910 5910 5909 5909 5909 5908 5907 5907 5906 5906 5906 5905 5905 5904 5904 5904 5903 5902 5901 5900 5900 5899 5898 5897 5897 5897 5897 5897 5897 5897 5897 5896 5896 5896 5897 5897 5897 5898 5898 5898 5898 5898 5898 5898 5898 5898 5899 5899 5900
5908 5907 5907 5906 5905 5904 5904 5903 5903 5902 5901 5901 5900 5900 5899 5898 5898 5898 5897 5896 5895 5894 5893 5892 5892 5892 5891 5891 5891 5891 5891 5891 5891 5891 5891 5892 5892 5893 5894 5894 5894 5894 5894 5894 5895 5895 5896 5896 5897
5905 5904 5904 5903 5901 5901 5900 5899 5897 5896 5896 5895 5894 5894 5893 5892 5892 5891 5891 5890 5889 5889 5888 5886 5886 5886 5885 5885 5885 5885 5885 5885 5885 5885 5885 5886 5887 5888 5888 5889 5890 5890 5890 5890 5891 5891 5892 5892 5893
5902 5901 5900 5899 5897 5896 5896 5893 5892 5891 5890 5889 5888 5887 5887 5886 5885 5884 5883 5883 5882 5882 5881 5880 5879 5879 5879 5878 5878 5878 5878 5878 5879 5879 5880 5880 5881 5882 5883 5883 5884 5885 5885 5886 5886 5887 5888 5888 5889
5898 5896 5895 5893 5891 5890 5889 5887 5885 5884 5883 5882 5881 5880 5878 5877 5876 5875 5875 5874 5873 5873 5872 5872 5871 5871 5871 5871 5871 5871 5871 5871 5871 5872 5873 5874 5875 5875 5876 5877 5878 5879 5880 5881 5882 5882 5883 5884 5885
5893 5891 5889 5888 5886 5884 5882 5880 5879 5877 5876 5874 5873 5871 5869 5868 5867 5866 5865 5863 5863 5862 5862 5862 5862 5862 5861 5862 5863 5864 5864 5864 5865 5865 5866 5867 5868 5868 5870 5871 5872 5873 5874 5875 5876 5877 5878 5879 5880
5888 5886 5884 5882 5880 5878 5876 5874 5872 5870 5868 5866 5864 5863 5861 5859 5857 5855 5853 5852 5851 5850 5850 5850 5850 5851 5852 5853 5853 5855 5856 5857 5858 5859 5859 5860 5861 5862 5863 5864 5865 5867 5868 5869 5870 5871 5872 5873 5874
5884 5881 5879 5876 5874 5872 5870 5868 5866 5863 5861 5858 5856 5853 5851 5849 5846 5844 5842 5840 5839 5838 5837 5837 5838 5839 5840 5842 5843 5845 5847 5849 5850 5851 5852 5853 5854 5855 5856 5858 5858 5860 5861 5862 5864 5865 5866 5867 5869
5879 5876 5873 5870 5868 5865 5863 5861 5859 5856 5853 5850 5847 5844 5841 5838 5836 5833 5830 5828 5827 5825 5825 5825 5825 5826 5828 5830 5832 5834 5837 5840 5842 5843 5845 5846 5847 5848 5850 5851 5852 5853 5855 5856 5857 5858 5860 5861 5862
5873 5871 5868 5864 5861 5859 5857 5854 5852 5848 5845 5842 5839 5835 5832 5828 5825 5822 5819 5817 5815 5813 5812 5812 5813 5814 5816 5818 5820 5823 5826 5830 5832 5835 5836 5838 5839 5841 5842 5844 5845 5847 5848 5849 5850 5851 5852 5854 5855
5869 5866 5862 5859 5856 5853 5851 5848 5846 5842 5839 5835 5831 5827 5823 5819 5815 5812 5808 5805 5803 5802 5801 5801 5801 5802 5803 5806 5809 5812 5816 5819 5823 5825 5827 5829 5831 5833 5834 5836 5838 5839 5841 5842 5843 5844 5845 5847 5848
5865 5862 5858 5855 5851 5849 5846 5843 5840 5836 5832 5829 5824 5820 5815 5811 5807 5803 5799 5796 5793 5791 5791 5790 5791 5791 5793 5795 5798 5801 5805 5809 5813 5816 5819 5821 5823 5825 5827 5828 5830 5832 5833 5834 5836 5836 5837 5839 5840
5862 5858 5855 5851 5847 5845 5841 5838 5835 5830 5826 5822 5818 5814 5809 5804 5800 5796 5792 5789 5786 5783 5782 5781 5782 5783 5784 5786 5789 5792 5796 5800 5804 5807 5810 5813 5815 5817 5819 5821 5823 5824 5825 5826 5827 5829 5829 5831 5832
5858 5855 5852 5848 5844 5841 5837 5834 5831 5826 5822 5817 5813 5809 5804 5800 5795 5790 5787 5784 5781 5778 5776 5775 5776 5776 5777 5779 5782 5785 5789 5792 5796 5799 5802 5805 5807 5809 5811 5813 5815 5817 5818 5819 5820 5820 5821 5823 5824
5856 5852 5849 5845 5841 5838 5835 5831 5828 5823 5819 5815 5810 5806 5801 5797 5792 5788 5784 5780 5777 5775 5773 5772 5772 5772 5773 5774 5777 5780 5783 5786 5789 5792 5795 5798 5800 5802 5803 5805 5806 5808 5809 5810 5812 5813 5813 5814 5816
5854 5850 5847 5843 5839 5836 5833 5830 5827 5822 5818 5814 5810 5805 5801 5796 5791 5787 5783 5779 5776 5774 5772 5771 5770 5770 5771 5772 5773 5776 5778 5781 5784 5787 5789 5792 5793 5795 5796 5797 5799 5800 5802 5803 5804 5804 5805 5806 5807
5853 5850 5845 5842 5839 5836 5833 5832 5826 5822 5818 5814 5810 5806 5801 5796 5792 5788 5784 5781 5777 5775 5773 5771 5771 5770 5770 5771 5772 5773 5775 5778 5780 5782 5784 5786 5787 5789 5790 5790 5792 5793 5794 5795 5795 5796 5797 5798 5799
5852 5849 5846 5843 5839 5836 5833 5833 5826 5822 5819 5815 5811 5807 5803 5798 5794 5790 5787 5783 5780 5777 5775 5773 5772 5772 5771 5771 5772 5773 5774 5776 5777 5778 5780 5781 5782 5783 5784 5785 5786 5787 5787 5788 5789 5789 5790 5791 5792